Regional Weather Roundup
Issued by NWS Albany, NY

Home | Current Version | Previous Version | Text Only | Print | Product List | Glossary On
Versions: 1 2 3 4 5 6 7 8 9 10 11 12 13 14 15 16 17 18 19 20 21 22 23 24 25 26 27 28
000
ASUS41 KALY 211310
RWRALY

NEW YORK STATE HOURLY WEATHER ROUNDUP
NATIONAL WEATHER SERVICE ALBANY NY
800 AM EST TUE FEB 21 2017

NOTE: "FAIR" INDICATES FEW OR NO CLOUDS BELOW 12,000 FEET WITH NO
SIGNIFICANT WEATHER AND/OR NO OBSTRUCTIONS TO VISIBILITY.

NYZ032-033-038>043-046>054-057>066-NYZ062>081-082-084-211400-
EAST


CITY           SKY/WX    TMP DP  RH WIND       PRES   REMARKS
ALBANY         CLOUDY    25  17  72 CALM      30.37S
GLENS FALLS    MOSUNNY   23  16  74 CALM      30.36S
POUGHKEEPSIE   CLOUDY    24  19  81 CALM      30.39R
NEWBURGH       PTSUNNY   25  19  80 CALM      30.39R
MONTGOMERY     CLOUDY    27  20  75 CALM      30.37R
WHITE PLAINS   MOSUNNY   33  11  39 E3        30.37R
ISLIP          CLOUDY    35  23  61 NE3       30.37S
NEW YORK CITY  CLOUDY    37  19  48 NE7       30.39R WCI  32
CENTRAL PARK   MOSUNNY   36  19  50 NE3       30.41R
$$

NYZ005>009-017-018-044>046-055-056-211400-
CENTRAL


CITY           SKY/WX    TMP DP  RH WIND       PRES   REMARKS
FULTON         CLOUDY    31  16  54 SE10G17   30.21S WCI  22
SYRACUSE       CLOUDY    28  18  66 E6        30.23S WCI  22
ROME           MOSUNNY   27  15  61 E8        30.29F WCI  19
ELMIRA         CLOUDY    32  20  61 SE3       30.23F
BINGHAMTON     CLOUDY    28  11  48 S9        30.23S WCI  19
MONTICELLO     CLOUDY    21  16  79 E5        30.32F WCI  15
$$

NYZ026>034-041>043-087-211400-
NORTH


CITY           SKY/WX    TMP DP  RH WIND       PRES   REMARKS
WATERTOWN      MOSUNNY   27  20  75 E5        30.19F WCI  22
FORT DRUM      NOT AVBL
OGDENSBURG     FAIR      26  20  77 CALM      30.22F
MASSENA        MOSUNNY   22  16  78 E3        30.28S
SARANAC LAKE   CLOUDY    14   9  80 CALM      30.19S
PLATTSBURGH    CLOUDY    21  17  84 CALM      30.30F
$$

NYZ001>004-010>016-019>021-085-211400-
WEST


CITY           SKY/WX    TMP DP  RH WIND       PRES   REMARKS
NIAGARA FALLS  CLOUDY    36  22  56 SE6       30.05F WCI  31
BUFFALO        CLOUDY    39  22  50 SE6       30.06S WCI  35
DUNKIRK        PTCLDY    47  26  44 CALM      30.04F
JAMESTOWN      CLOUDY    39  19  45 S13G18    30.07F WCI  32
WELLSVILLE     CLOUDY    38  15  39 S8G20     30.14S WCI  32
ROCHESTER      CLOUDY    36  18  48 SE7       30.11F WCI  30
PENN YAN       CLOUDY    36  14  40 S12       30.17F WCI  28
$$

             KEY
       WCI = WIND CHILL INDEX
       VSB = VISIBILITY
       HX  = HEAT INDEX
$$




USA.gov is the U.S. government's official web portal to all federal, state and local government web resources and services.